Powrót do katalogu

BREEZE-M DEB

TANK

AktywnyHEO
NORAD 32480·DEBRIS·🇷🇺 Russia

Wystrzelony Jan 28, 2008 z Baikonur Cosmodrome

Loading…

Następne Przeloty (najbliższe 24 godziny)

TLE

ŚwieżeSource: Space-Track

Epoka: Sep 14, 2026, 14:32 UTC

1 32480U 08003C   26257.60621157  .00000013  00000-0  14800-2 0  9997
2 32480  45.0048 107.8999 7078791  87.8178 344.5861  2.30100027156470

Śledź BREEZE-M DEB w czasie rzeczywistym z AllMySat

Download on the App Store